User: anonymous   Login
Location: Pabrico
(37.5827°N, 122.0063°W)
Time: 04:24:59
(UTC+00:00)
Language:

Cosmos 1933 Rocket - Orbit

View from above orbital plane
View from above orbital plane
View from above satellite
View from above satellite

Ground track
Ground track

The orbit data is extracted from the following two-line orbital elements,

1 18959U 88020B   24174.61413124  .00000570  00000-0  64625-4 0  9999
2 18959  82.5371  35.5156 0015610 328.1410  31.8860 14.84551647939425
Epoch (UTC): 22 June 2024 14:44:20
Eccentricity: 0.0015610
inclination: 82.5371°
perigee height: 604 km
apogee height: 626 km
right ascension of ascending node: 35.5156°
argument of perigee: 328.1410°
revolutions per day: 14.84551647
mean anomaly at epoch: 31.8860°
orbit number at epoch: 93942

The dashed part of the orbit path shows where the satellite is in the earth's shadow,  

DLR